Volver al catálogo

DELTA 1 DEB

LostPO
NORAD 21462·DEBRIS·🇺🇸 United States

Lanzado Jun 12, 1975 desde Vandenberg Space Force Base

Loading…

Próximos Pases (próximas 24 horas)

TLE

ObsoletoSource: Space-Track

Época: Nov 4, 2015, 22:15 UTC

1 21462U 75052EW  15308.92717125 -.00000011  00000-0  00000-0 0  9998
2 21462  90.7142 329.3884 1410812 266.6328  77.3574 12.47366472117719

Sigue DELTA 1 DEB en tiempo real con AllMySat

Download on the App Store